Buffalo, WY (82834)

11:06 AM MDT on August 22, 2014 (GMT -0600)
Esponda Ranch | Change Station
CLOSE
Current Station
Personal Weather Station
Location: Buffalo, WY
Elevation: 4665 ft
Nearby Weather Stations

Elev 4665 ft 44.32 °N, 106.67 °W | Updated 11 minutes ago

Thunderstorm
Thunderstorm
67.5 °F
Feels Like 67.5 °F
N
9.0
Wind Variable Wind from SE
Gusts 17.0 mph

Today
High -- | Low -- °F
--% Chance of Precip.
Yesterday
High -- | Low -- °F
Precip. -- in
6:18 AM 8:00 PM
Waning Crescent, 7% visible
Pressure 29.99 in
Visibility 10.0 miles
Clouds Mostly Cloudy 2100 ft
Overcast 2600 ft
Dew Point 57 °F
Humidity 70%
Rainfall 0.00 in
Snow Depth 1 in , 0 in
UV out of 12
Pollen 6.70 out of 12
Air Quality Not available.
Flu Activity Not available.
METAR KBYG 221653Z AUTO 14013KT 10SM BKN021 OVC026 18/12 A3011 RMK AO2 SLP156 T01780122

More Conditions Fewer Conditions

Pressure 29.99 in
Visibility 10.0 miles
Clouds Mostly Cloudy 2100 ft
Overcast 2600 ft
Dew Point 57 °F
Humidity 70%
Rainfall 0.00 in
Snow Depth 1 in , 0 in
UV out of 12
Pollen 6.70 out of 12
Air Quality Not available.
Flu Activity Not available.
METAR KBYG 221653Z AUTO 14013KT 10SM BKN021 OVC026 18/12 A3011 RMK AO2 SLP156 T01780122

More Conditions Fewer Conditions

10-Day Weather Forecast

Almanac

Astronomy

Aug. 22, 2014 Rise Set
Actual Time 6:18 AM MDT 8:00 PM MDT
Civil Twilight 5:47 AM MDT 8:31 PM MDT
Nautical Twilight 5:09 AM MDT 9:08 PM MDT
Astronomical Twilight 4:29 AM MDT 9:48 PM MDT
Moon 3:40 AM MDT 6:12 PM MDT
Length of Visible Light 14h 43m
Length of Day
13h 42m
Tomorrow will be 2m 51s shorter.
Waning Crescent, 7% of the Moon is Illuminated
Today
Waning Crescent
Aug 25
New
Sep 2
First Quarter
Sep 8
Full
Sep 15
Last Quarter

Today's Extremes

State Highs State Lows

Community

WunderPhotos

Upload Photos

1,746,203 photos uploaded!

Nearby

Snow Depth

Station Depth Elevation
Hansen Sawmill 1 in 8360 ft
Cloud Peak Reservoir 0 in 9860 ft
Powder River Pass 0 in 9480 ft
Big Goose 0 in 7990 ft
Dome Lake 0 in 8880 ft

Earthquake Activity

City Distance Mag. Time & Date
No recent earthquake activity has been reported nearby.
Minimum magnitude displayed is 2.5.

Coastal Water Temperatures

Place Temperature
No Stations Reporting

Nearby Weather Stations